[[{"header":{"parameterUnit":"m.s-1","parameterCategory":2,"la1":30.2992,"la2":30.254,"lo1":-89.0895,"lo2":-89.0443,"dy":0.0025,"dx":0.0025,"nx":19,"ny":19,"refTime":"2026-03-13T21:00:00:Z","depth":"0","parameterNumber":2,"parameterNumberName":"U-component_of_CURRENTS"},"data":[0,0,0,0.1706,0.1708,0.1765,0.1766,0.1836,0.1836,0,0,0,0,0,0,0,0,0,0,0,0.1682,0.1682,0.1706,0.1708,0.1765,0.1766,0.1836,0.1836,0,0,0,0,0,0,0,0,0,0,0,0.1682,0.1682,0.1683,0.1708,0.1765,0.1766,0.1835,0.1792,0,0,0,0,0,0,0,0,0,0,0.1736,0.1707,0.1682,0.1683,0.1709,0.1765,0.1766,0.179,0.1795,0.181,0,0.182,0,0.1834,0.1841,0.1842,0,0,0,0.1704,0.1703,0.1729,0.1683,0.1709,0.1765,0.1738,0.1792,0.1798,0.1816,0.1821,0.1824,0.1836,0.1842,0.1842,0.1937,0.1937,0,0,0.1701,0.1684,0.1725,0.1732,0.1726,0.1737,0.174,0.1796,0.1796,0.1821,0.1826,0.1837,0.1842,0.1843,0.1936,0.1937,0,0,0,0.1694,0.1681,0.1705,0.1729,0.1742,0.1738,0.1742,0.1794,0.1805,0.1826,0.1837,0.1843,0.1844,0.1936,0.1936,0.1964,0,0,0,0.1692,0.1678,0.1703,0.1692,0.1741,0.1768,0.1739,0.18,0.1807,0.1837,0.1843,0.1844,0.1935,0.1936,0.1962,0.1969,0,0,0,0.1679,0.1677,0.1686,0.1692,0.172,0.1767,0.1781,0.1802,0.1814,0.1842,0.1845,0.1935,0.1936,0.196,0.1966,0.2026,0,0,0,0.1656,0.1668,0.1685,0.1707,0.172,0.1773,0.178,0.1816,0.1839,0.1843,0.1935,0.1936,0.196,0.1964,0.2024,0.2061,0.2074,0,0,0.1659,0.1667,0.1683,0.1701,0.1747,0.1765,0.1822,0.1851,0.1863,0.1915,0.1917,0.1962,0.1966,0.2026,0.2126,0.2137,0,0,0,0.1677,0.1686,0.1704,0.1736,0.1778,0.1824,0.1857,0.1886,0.1937,0.1884,0.1978,0.1979,0.2017,0.2034,0.2044,0.2106,0.1941,0.1941,0.1941,0.1646,0.1683,0.1712,0.1762,0.1803,0.187,0.1915,0.1962,0.1967,0.1999,0.2013,0.2092,0.2111,0.2118,0.2182,0.203,0.203,0.203,0.203,0.1651,0.1664,0.172,0.1758,0.1821,0.1873,0.1977,0.2002,0.209,0.2064,0.21,0.2076,0.213,0.2194,0.2032,0.2032,0.2031,0.2031,0.2031,0.162,0.163,0.1661,0.1722,0.1786,0.1871,0.1968,0.2047,0.211,0.2149,0.2192,0.2192,0.224,0.2177,0.2178,0.2178,0.2178,0.2178,0.2179,0.1566,0.16,0.1616,0.1685,0.1718,0.1813,0.1965,0.2054,0.2187,0.223,0.2231,0.2283,0.2137,0.2122,0.2183,0.2182,0.2182,0.2181,0.2181,0.1518,0.1529,0.1554,0.1579,0.1668,0.1732,0.1902,0.2107,0.2219,0.2291,0.2414,0.2288,0.2288,0.228,0.2269,0.2365,0.2365,0.2365,0.2365,0.1467,0.1483,0.1493,0.152,0.1588,0.1692,0.1819,0.2036,0.2327,0.2465,0.2525,0.25,0.249,0.25,0.2487,0.2479,0.2627,0.2627,0.2628,0.143,0.1445,0.143,0.147,0.1536,0.1637,0.1732,0.194,0.2394,0.2643,0.2609,0.2598,0.2563,0.2541,0.2552,0.2529,0.2513,0,0]},{"header":{"parameterUnit":"m.s-1","parameterCategory":2,"la1":30.2992,"la2":30.254,"lo1":-89.0895,"lo2":-89.0443,"dy":0.0025,"dx":0.0025,"nx":19,"ny":19,"refTime":"2026-03-13T21:00:00:Z","depth":"0","parameterNumber":3,"parameterNumberName":"V-component_of_CURRENTS"},"data":[0,0,0,0.0041,0.004,-0.0008,-0.0009,-0.0102,-0.0103,0,0,0,0,0,0,0,0,0,0,0,0.0058,0.0058,0.0041,0.004,-0.0008,-0.0009,-0.0102,-0.0103,0,0,0,0,0,0,0,0,0,0,0,0.0058,0.0058,0.0058,0.004,-0.0008,-0.0009,-0.0102,-0.006,0,0,0,0,0,0,0,0,0,0,-0.001,0.0018,0.0058,0.0058,0.004,-0.0008,-0.0009,-0.0058,-0.0063,-0.0086,0,-0.0085,0,-0.0092,-0.0109,-0.0109,0,0,0,0.0029,0.0022,0.0007,0.0058,0.004,-0.0008,0.001,-0.0061,-0.0066,-0.0092,-0.0086,-0.009,-0.0094,-0.011,-0.011,-0.0147,-0.0147,0,0,0.0032,0.0047,0.0011,0.0004,0.0037,0.0012,0.0009,-0.0064,-0.0065,-0.0087,-0.0092,-0.0095,-0.011,-0.0111,-0.0148,-0.0147,0,0,0,0.0047,0.0049,0.0036,0.0008,0.0004,0.0011,0.0007,-0.0062,-0.0066,-0.0093,-0.0097,-0.0111,-0.0112,-0.0148,-0.0147,-0.0056,0,0,0,0.0048,0.0058,0.0037,0.0045,0.0006,-0.0024,0.0011,-0.0061,-0.0069,-0.0096,-0.0111,-0.0113,-0.0148,-0.0148,-0.0059,-0.0002,0,0,0,0.0058,0.0059,0.0057,0.0047,0.003,-0.0023,-0.0032,-0.0063,-0.0071,-0.0109,-0.0113,-0.0148,-0.0148,-0.0062,-0.0008,0.0043,0,0,0,0.0071,0.0091,0.0057,0.0077,0.0031,0.0028,-0.0031,-0.0046,-0.0071,-0.0111,-0.0148,-0.0148,-0.0063,-0.0011,0.0039,0.0124,0.0148,0,0,0.0107,0.0095,0.0108,0.0077,0.0096,0.0033,0.0046,-0.0016,-0.0073,-0.0129,-0.013,-0.0058,-0.0008,0.0042,0.0159,0.0182,0,0,0,0.0126,0.0139,0.0138,0.0138,0.0116,0.0108,0.0044,0.0013,-0.0034,-0.0084,-0.0072,-0.0043,-0.0014,0.0029,0.0047,-0.0047,-0.0145,-0.0145,-0.0145,0.0194,0.0184,0.0214,0.0201,0.0196,0.0153,0.0142,0.0084,0.0015,0.0009,0.0021,0.011,0.0156,0.017,0.0071,-0.0001,-0.0,-0.0,0.0,0.0265,0.0287,0.0276,0.0299,0.0278,0.0277,0.0226,0.0184,0.0165,0.009,0.0113,0.011,0.0196,0.0083,0.0006,0.0005,0.0004,0.0003,0.0003,0.0312,0.0325,0.0332,0.0367,0.039,0.0357,0.0405,0.0339,0.0259,0.0282,0.0307,0.0306,0.0216,0.0287,0.0287,0.0288,0.0288,0.0288,0.0289,0.0357,0.037,0.0412,0.0443,0.0476,0.0522,0.0506,0.0512,0.0483,0.0427,0.0426,0.0242,0.0197,0.0197,0.0296,0.0295,0.0294,0.0293,0.0293,0.0424,0.0422,0.0497,0.0536,0.0633,0.0751,0.0724,0.0762,0.0727,0.074,0.0472,0.0494,0.0476,0.046,0.0466,0.0629,0.0629,0.0629,0.0629,0.0468,0.0472,0.0583,0.0672,0.0787,0.0862,0.1028,0.1027,0.0818,0.0687,0.0555,0.0488,0.0479,0.0453,0.0438,0.0439,0.0592,0.0591,0.0591,0.052,0.0548,0.0642,0.0724,0.0857,0.1007,0.1189,0.1267,0.0903,0.0573,0.0408,0.041,0.0288,0.0281,0.0216,0.0203,0.0195,0,0]}],[{"header":{"parameterUnit":"m.s-1","parameterCategory":2,"la1":30.2992,"la2":30.254,"lo1":-89.0895,"lo2":-89.0443,"dy":0.0025,"dx":0.0025,"nx":19,"ny":19,"refTime":"2026-03-13T21:00:00:Z","depth":"2","parameterNumber":2,"parameterNumberName":"U-component_of_CURRENTS"},"data":[0,0,0,0.161,0.1611,0.1676,0.1676,0.1744,0.1745,0,0,0,0,0,0,0,0,0,0,0,0.1584,0.1585,0.161,0.1612,0.1676,0.1676,0.1744,0.1745,0,0,0,0,0,0,0,0,0,0,0,0.1584,0.1585,0.1585,0.1612,0.1676,0.1676,0.1744,0.1698,0,0,0,0,0,0,0,0,0,0,0.1637,0.1612,0.1585,0.1585,0.1612,0.1676,0.1676,0.1696,0.1701,0.1713,0,0.1725,0,0.174,0.175,0.175,0,0,0,0.1607,0.1607,0.1632,0.1586,0.1613,0.1676,0.1646,0.1699,0.1704,0.1719,0.1727,0.1729,0.1742,0.175,0.175,0.1842,0.1843,0,0,0.1604,0.1589,0.1628,0.1635,0.1634,0.1644,0.1648,0.1702,0.1705,0.1727,0.1731,0.1743,0.175,0.1751,0.1842,0.1842,0,0,0,0.1597,0.1587,0.161,0.1632,0.1647,0.1646,0.165,0.1703,0.1713,0.1732,0.1744,0.1751,0.1752,0.1841,0.1842,0.1866,0,0,0,0.1594,0.1583,0.1608,0.1599,0.1647,0.1677,0.1649,0.1709,0.1716,0.1743,0.1751,0.1752,0.1841,0.1842,0.1864,0.1872,0,0,0,0.1581,0.1581,0.1592,0.1598,0.1629,0.1676,0.1689,0.171,0.1723,0.175,0.1753,0.184,0.1842,0.1862,0.187,0.1919,0,0,0,0.156,0.1573,0.1591,0.1614,0.1629,0.1681,0.1689,0.1725,0.1749,0.1751,0.1841,0.1842,0.1862,0.1868,0.1917,0.1916,0.1925,0,0,0.1564,0.1573,0.1589,0.1607,0.1652,0.1671,0.1727,0.1758,0.1772,0.182,0.1822,0.1864,0.1869,0.1919,0.1983,0.199,0,0,0,0.1582,0.1591,0.1609,0.1641,0.1682,0.1727,0.1762,0.179,0.1842,0.1793,0.1882,0.1884,0.1915,0.191,0.1916,0.1848,0.1847,0.1847,0.1847,0.1554,0.1589,0.1617,0.1665,0.1705,0.1772,0.1816,0.1862,0.1868,0.1902,0.1916,0.1986,0.1982,0.1986,0.1932,0.1932,0.1932,0.1932,0.1932,0.1558,0.157,0.1625,0.1663,0.1724,0.1776,0.1874,0.19,0.1984,0.1964,0.1993,0.195,0.1994,0.1935,0.1934,0.1934,0.1934,0.1934,0.1933,0.1528,0.1538,0.1569,0.163,0.1696,0.1778,0.1868,0.1944,0.2003,0.2039,0.2052,0.2051,0.2001,0.2062,0.2062,0.2062,0.2062,0.2063,0.2063,0.1475,0.1509,0.1527,0.1597,0.1633,0.1726,0.1869,0.1946,0.2052,0.2085,0.2085,0.203,0.2026,0.201,0.2067,0.2066,0.2066,0.2065,0.2065,0.1429,0.1441,0.1467,0.1496,0.1587,0.1643,0.1797,0.196,0.2061,0.2111,0.2121,0.2118,0.2115,0.2109,0.2095,0.2171,0.2171,0.2171,0.2171,0.138,0.1396,0.141,0.144,0.1505,0.1602,0.1682,0.1824,0.1999,0.2055,0.2059,0.2009,0.2008,0.1995,0.1992,0.1974,0.2019,0.2018,0.2017,0.1345,0.136,0.1349,0.1391,0.1454,0.1539,0.1572,0.1631,0.1821,0.2005,0.1969,0.2173,0.211,0.2105,0.2092,0.2084,0.2058,0,0]},{"header":{"parameterUnit":"m.s-1","parameterCategory":2,"la1":30.2992,"la2":30.254,"lo1":-89.0895,"lo2":-89.0443,"dy":0.0025,"dx":0.0025,"nx":19,"ny":19,"refTime":"2026-03-13T21:00:00:Z","depth":"2","parameterNumber":3,"parameterNumberName":"V-component_of_CURRENTS"},"data":[0,0,0,-0.0042,-0.0043,-0.0087,-0.0087,-0.0173,-0.0174,0,0,0,0,0,0,0,0,0,0,0,-0.0027,-0.0027,-0.0042,-0.0043,-0.0087,-0.0087,-0.0173,-0.0174,0,0,0,0,0,0,0,0,0,0,0,-0.0027,-0.0027,-0.0027,-0.0043,-0.0087,-0.0087,-0.0173,-0.0135,0,0,0,0,0,0,0,0,0,0,-0.0089,-0.0064,-0.0027,-0.0027,-0.0043,-0.0087,-0.0087,-0.0133,-0.0137,-0.0159,0,-0.0158,0,-0.0165,-0.018,-0.018,0,0,0,-0.0053,-0.006,-0.0073,-0.0027,-0.0043,-0.0087,-0.007,-0.0135,-0.014,-0.0165,-0.0159,-0.0163,-0.0166,-0.018,-0.0181,-0.0211,-0.021,0,0,-0.0051,-0.0037,-0.007,-0.0076,-0.0046,-0.0068,-0.0071,-0.0138,-0.0139,-0.016,-0.0164,-0.0168,-0.0181,-0.0181,-0.0211,-0.021,0,0,0,-0.0037,-0.0035,-0.0047,-0.0073,-0.0077,-0.0069,-0.0073,-0.0136,-0.014,-0.0165,-0.0169,-0.0181,-0.0182,-0.0211,-0.0211,-0.0127,0,0,0,-0.0036,-0.0026,-0.0045,-0.0038,-0.0075,-0.0102,-0.0069,-0.0136,-0.0143,-0.0168,-0.0181,-0.0183,-0.0211,-0.0211,-0.013,-0.0078,0,0,0,-0.0026,-0.0025,-0.0028,-0.0037,-0.0052,-0.0101,-0.0109,-0.0138,-0.0145,-0.018,-0.0183,-0.0212,-0.0211,-0.0133,-0.0083,-0.0051,0,0,0,-0.0015,0.0003,-0.0028,-0.0008,-0.0051,-0.0052,-0.0109,-0.0121,-0.0144,-0.0182,-0.0211,-0.0211,-0.0134,-0.0086,-0.0055,-0.0008,0.001,0,0,0.0018,0.0008,0.002,-0.0008,0.0012,-0.0047,-0.0033,-0.0091,-0.0143,-0.0194,-0.0195,-0.0129,-0.0084,-0.0052,0.0031,0.0049,0,0,0,0.0037,0.005,0.0049,0.0051,0.0032,0.0025,-0.0034,-0.0063,-0.0106,-0.0153,-0.0139,-0.0112,-0.0095,-0.0074,-0.0061,-0.0207,-0.0208,-0.0208,-0.0208,0.0099,0.0091,0.0121,0.0112,0.0108,0.007,0.0058,0.0005,-0.0057,-0.0063,-0.0052,0.0021,0.0044,0.0055,-0.007,-0.007,-0.007,-0.0069,-0.0069,0.0164,0.0186,0.0179,0.0202,0.0185,0.0185,0.0138,0.0098,0.0076,0.0014,0.0026,0.0004,0.0075,-0.0063,-0.0064,-0.0065,-0.0066,-0.0066,-0.0066,0.0206,0.022,0.0228,0.0265,0.0287,0.0259,0.0297,0.0237,0.016,0.0177,0.017,0.0169,0.0079,0.0174,0.0174,0.0174,0.0175,0.0175,0.0175,0.0245,0.026,0.0299,0.0332,0.0364,0.0403,0.0388,0.0384,0.0336,0.0276,0.0276,0.0103,0.0095,0.0092,0.0181,0.018,0.0179,0.0179,0.0178,0.0303,0.0303,0.0372,0.041,0.0498,0.0592,0.0566,0.0567,0.0528,0.0517,0.032,0.0315,0.0292,0.028,0.028,0.0413,0.0413,0.0413,0.0413,0.034,0.0344,0.0444,0.0525,0.0626,0.0684,0.0793,0.0749,0.0611,0.0504,0.05,0.0457,0.0446,0.0427,0.0411,0.0412,0.058,0.058,0.058,0.0383,0.0409,0.049,0.0566,0.0683,0.0799,0.0906,0.0877,0.0669,0.0585,0.0509,0.0428,0.035,0.0338,0.0292,0.0274,0.0268,0,0]}],[{"header":{"parameterUnit":"m.s-1","parameterCategory":2,"la1":30.2992,"la2":30.254,"lo1":-89.0895,"lo2":-89.0443,"dy":0.0025,"dx":0.0025,"nx":19,"ny":19,"refTime":"2026-03-13T21:00:00:Z","depth":"4","parameterNumber":2,"parameterNumberName":"U-component_of_CURRENTS"},"data":[0,0,0,0.1141,0.1144,0.127,0.1271,0.1353,0.1353,0,0,0,0,0,0,0,0,0,0,0,0.11,0.1101,0.1141,0.1144,0.127,0.1271,0.1353,0.1353,0,0,0,0,0,0,0,0,0,0,0,0.11,0.1101,0.1102,0.1145,0.127,0.1271,0.1353,0.1276,0,0,0,0,0,0,0,0,0,0,0.1163,0.114,0.1101,0.1102,0.1145,0.127,0.1271,0.1274,0.1281,0.1274,0,0.1304,0,0.1329,0.1357,0.1357,0,0,0,0.1142,0.1134,0.1166,0.1103,0.1147,0.127,0.1213,0.1278,0.1287,0.1283,0.1305,0.1309,0.1331,0.1358,0.1358,0.1427,0.1428,0,0,0.1135,0.1121,0.1161,0.1172,0.1192,0.1209,0.1217,0.1284,0.1297,0.1305,0.1311,0.1332,0.1358,0.1358,0.1427,0.1427,0,0,0,0.1116,0.1116,0.1149,0.1168,0.1197,0.1212,0.1222,0.1294,0.1306,0.1312,0.1333,0.1358,0.1359,0.1427,0.1427,0.147,0,0,0,0.1112,0.1106,0.1146,0.1139,0.1197,0.1259,0.123,0.1301,0.131,0.1332,0.1358,0.136,0.1426,0.1427,0.1468,0.148,0,0,0,0.1092,0.1104,0.1122,0.1138,0.1194,0.1259,0.1274,0.1304,0.1322,0.1358,0.136,0.1426,0.1427,0.1467,0.1477,0.1522,0,0,0,0.1068,0.1094,0.1122,0.1161,0.1193,0.1262,0.1275,0.1333,0.1366,0.1359,0.1426,0.1427,0.1466,0.1475,0.152,0.1344,0,0,0,0.1079,0.1095,0.1116,0.1145,0.1203,0.1243,0.131,0.1362,0.1372,0.1397,0.14,0.1469,0.1477,0.1521,0.1391,0,0,0,0,0.1105,0.1122,0.1145,0.1193,0.1246,0.1305,0.136,0.1387,0.1442,0.1397,0.1473,0.1476,0.1503,0.1394,0.1431,0.1431,0.1431,0.1431,0.143,0.1087,0.1124,0.1164,0.1219,0.127,0.1355,0.1406,0.1452,0.1462,0.1495,0.1514,0.158,0.1466,0.1521,0.1521,0.1522,0.1522,0.1522,0.1522,0.1091,0.1107,0.1175,0.1227,0.13,0.1367,0.1459,0.1493,0.1573,0.1556,0.1581,0.145,0.1526,0.1525,0.1525,0.1524,0.1524,0.1524,0.1523,0.1058,0.107,0.1122,0.1204,0.1291,0.1384,0.147,0.1548,0.1604,0.1643,0.1544,0.1614,0.1608,0.1671,0.1672,0.1672,0.1672,0.1672,0.1672,0.0995,0.1045,0.1087,0.1181,0.1239,0.1341,0.1487,0.1545,0.1628,0.1571,0.1668,0.163,0.1625,0.1617,0.1676,0.1676,0.1675,0.1675,0.1675,0.094,0.0973,0.1024,0.1078,0.12,0.1259,0.1417,0.1493,0.1546,0.1541,0.1532,0.1538,0.1508,0.1507,0.1493,0.1518,0.1516,0.1514,0,0.0891,0.0914,0.097,0.1027,0.1092,0.1204,0.1243,0.1338,0.1414,0.1363,0.1547,0.1533,0.1537,0.1499,0.1495,0.1475,0,0,0,0.0855,0.0882,0.0898,0.097,0.1032,0.1122,0.1247,0.1241,0.1394,0.1403,0.1463,0.1476,0.1605,0.1688,0.1657,0.1651,0.1636,0,0]},{"header":{"parameterUnit":"m.s-1","parameterCategory":2,"la1":30.2992,"la2":30.254,"lo1":-89.0895,"lo2":-89.0443,"dy":0.0025,"dx":0.0025,"nx":19,"ny":19,"refTime":"2026-03-13T21:00:00:Z","depth":"4","parameterNumber":3,"parameterNumberName":"V-component_of_CURRENTS"},"data":[0,0,0,-0.0012,-0.0013,-0.005,-0.0051,-0.0113,-0.0114,0,0,0,0,0,0,0,0,0,0,0,0.0,0.0,-0.0012,-0.0013,-0.005,-0.0051,-0.0113,-0.0114,0,0,0,0,0,0,0,0,0,0,0,0.0001,0.0,0.0,-0.0013,-0.005,-0.0051,-0.0113,-0.0083,0,0,0,0,0,0,0,0,0,0,-0.0045,-0.0026,0.0,0.0,-0.0013,-0.005,-0.0051,-0.0081,-0.0085,-0.0098,0,-0.0099,0,-0.0105,-0.0118,-0.0118,0,0,0,-0.0021,-0.0024,-0.0035,0.0,-0.0013,-0.005,-0.0036,-0.0083,-0.0087,-0.0102,-0.01,-0.0102,-0.0106,-0.0118,-0.0118,-0.0126,-0.0126,0,0,-0.0018,-0.0008,-0.0032,-0.0037,-0.0017,-0.0034,-0.0037,-0.0086,-0.0087,-0.01,-0.0103,-0.0107,-0.0118,-0.0119,-0.0127,-0.0126,0,0,0,-0.0007,-0.0007,-0.0016,-0.0034,-0.0038,-0.0035,-0.0038,-0.0085,-0.0088,-0.0104,-0.0107,-0.0119,-0.0119,-0.0127,-0.0126,-0.0069,0,0,0,-0.0006,0.0001,-0.0015,-0.001,-0.0037,-0.0059,-0.0036,-0.0085,-0.009,-0.0107,-0.0119,-0.012,-0.0127,-0.0127,-0.0071,-0.0034,0,0,0,0.0001,0.0001,-0.0001,-0.0009,-0.0022,-0.0058,-0.0065,-0.0086,-0.0092,-0.0118,-0.012,-0.0128,-0.0127,-0.0074,-0.0039,-0.0027,0,0,0,0.001,0.0022,-0.0001,0.0013,-0.0021,-0.002,-0.0065,-0.0075,-0.0091,-0.0119,-0.0127,-0.0126,-0.0074,-0.0041,-0.003,-0.0001,0,0,0,0.0034,0.0025,0.0035,0.0013,0.0031,-0.0016,-0.0002,-0.0048,-0.0084,-0.0115,-0.0115,-0.0071,-0.0039,-0.0028,0.0045,0,0,0,0,0.0048,0.0057,0.0058,0.0061,0.0048,0.0043,-0.0001,-0.0023,-0.0051,-0.009,-0.007,-0.0052,-0.0047,-0.0037,-0.0123,-0.0123,-0.0123,-0.0123,-0.0123,0.0091,0.0088,0.0112,0.011,0.0109,0.0081,0.0071,0.0034,-0.0011,-0.0012,-0.0005,0.0045,0.0058,-0.0013,-0.0013,-0.0012,-0.0012,-0.0012,-0.0012,0.0138,0.0155,0.0156,0.0178,0.0168,0.0173,0.0138,0.0106,0.0087,0.0048,0.0049,0.0023,-0.0006,-0.0007,-0.0008,-0.0009,-0.0009,-0.001,-0.001,0.0166,0.0176,0.0188,0.0223,0.0245,0.0229,0.0253,0.0209,0.0148,0.0154,0.014,0.0081,0.0075,0.0145,0.0145,0.0145,0.0145,0.0146,0.0146,0.0186,0.0203,0.0236,0.027,0.0299,0.0329,0.0319,0.0306,0.0244,0.0218,0.0169,0.0097,0.0092,0.0084,0.0149,0.0149,0.0148,0.0148,0.0148,0.0218,0.0224,0.0279,0.0313,0.0387,0.0414,0.041,0.0375,0.0361,0.0321,0.0239,0.0233,0.0213,0.0205,0.0199,0.0302,0.0302,0.0303,0,0.0236,0.0243,0.0319,0.0384,0.0453,0.0466,0.0481,0.0455,0.0368,0.0364,0.0338,0.0246,0.0241,0.0217,0.0211,0.0206,0,0,0,0.0258,0.028,0.0336,0.0401,0.048,0.0492,0.0487,0.0468,0.0388,0.0374,0.0318,0.0314,0.0236,0.016,0.0114,0.0108,0.0092,0,0]}]]